Location: Unspecified
(17.6330°N, 0.0000°E)
Time: 05:08:07
(UTC+00:00)

A-11 Canister half - Pass Details

Date: 26 June 2019
Orbit: 1514 x 1685 km, 47.2° (Epoch: 22 July)

Event Time Altitude Azimuth Distance (km) Brightness Sun altitude
Rises 14:11:37 0° 329° (NNW) 4,798 11.9 59.4°
Reaches altitude 10° 14:16:51 10° 352° (N) 3,773 11.4 58.2°
Maximum altitude 14:21:45 15° 24° (NNE) 3,369 10.9 57.1°
Drops below altitude 10° 14:26:33 10° 55° (NE) 3,710 10.9 56.0°
Sets 14:31:34 0° 78° (ENE) 4,669 11.2 54.8°
